Voltar ao catálogo

PALAPA 1

AtivoComunicaçõesGEO
NORAD 9009·PAYLOAD·🇮🇩 Indonesia

Lançado Jul 8, 1976 de Cape Canaveral Space Force Station

Loading…

TLE

AtualizadoSource: Space-Track

Época: Sep 14, 2026, 08:37 UTC

1 09009U 76066A   26257.35931174 -.00000130  00000-0  00000-0 0  9993
2 09009   7.7101 304.4577 0004997 242.2374 285.7694  1.00109331128830

Acompanhe PALAPA 1 em tempo real com AllMySat

Download on the App Store